�v������,���O�C��(��),���O���x(��),�Ɠx(lx),��O�J�Z���T�[(1:�~�J),����(m/s)
2024-01-01 00:00:00,9.6,86.3,2,0.0,3
2024-01-01 00:10:00,9.8,86.9,0,0.0,2
2024-01-01 00:20:00,10.2,81.1,2,0.0,2
2024-01-01 00:30:00,10.4,79,2,0.0,6
2024-01-01 00:40:00,10.5,77.9,2,0.0,4
2024-01-01 00:50:00,9.9,81.4,2,0.0,3
2024-01-01 01:00:00,9.8,82.5,2,0.0,2
2024-01-01 01:10:00,10,83.1,2,0.0,5.5
2024-01-01 01:20:00,10,84,0,0.0,5
2024-01-01 01:30:00,9.7,82.7,2,0.0,5
2024-01-01 01:40:00,9.6,81.3,0,0.0,5
2024-01-01 01:50:00,9.6,81.9,0,0.0,4
2024-01-01 02:00:00,9.7,82.1,0,0.0,3
2024-01-01 02:10:00,9.6,78.9,0,0.0,2
2024-01-01 02:20:00,9.5,82,2,0.0,5
2024-01-01 02:30:00,9.6,82.4,0,0.0,3.5
2024-01-01 02:40:00,9.6,81.7,0,0.0,3
2024-01-01 02:50:00,9.4,82.2,2,0.0,3
2024-01-01 03:00:00,9.3,82.7,0,0.0,3
2024-01-01 03:10:00,9.4,83.7,0,0.0,1
2024-01-01 03:20:00,9.2,82.2,0,0.0,1
2024-01-01 03:30:00,9.3,79.5,2,0.0,2
2024-01-01 03:40:00,9.4,80.7,0,0.0,1
2024-01-01 03:50:00,9.2,81.2,0,0.0,3
2024-01-01 04:00:00,9.1,82.6,2,0.0,3
2024-01-01 04:10:00,8.8,82.2,0,0.0,4
2024-01-01 04:20:00,9,82.1,0,0.0,3
2024-01-01 04:30:00,9,82.5,0,0.0,1.5
2024-01-01 04:40:00,9,81.7,0,0.0,1
2024-01-01 04:50:00,9,81.5,2,0.0,1
2024-01-01 05:00:00,9,82.5,0,0.0,5
2024-01-01 05:10:00,8.8,82.6,0,0.0,2
2024-01-01 05:20:00,8.7,83.6,0,0.0,2
2024-01-01 05:30:00,8.9,83.8,0,0.0,3.5
2024-01-01 05:40:00,8.7,84.2,0,0.0,2
2024-01-01 05:50:00,9,81.3,0,0.0,3.5
2024-01-01 06:00:00,9.2,81.6,2,0.0,3
2024-01-01 06:10:00,8.7,81.6,0,0.0,1
2024-01-01 06:20:00,8.8,82.2,0,0.0,3
2024-01-01 06:30:00,8.9,81.3,2,0.0,3
2024-01-01 06:40:00,8.6,81.4,2,0.0,1.5
2024-01-01 06:50:00,8.9,81,4,0.0,1
2024-01-01 07:00:00,8.9,79.9,42,0.0,2
2024-01-01 07:10:00,8.8,78.7,232,0.0,2
2024-01-01 07:20:00,8.6,76.9,999.68,0.0,1.5
2024-01-01 07:30:00,8.7,77.8,999.68,0.0,2
2024-01-01 07:40:00,8.7,77.9,1999.36,0.0,1
2024-01-01 07:50:00,8.7,78.5,3998.72,0.0,1
2024-01-01 08:00:00,8.7,77.8,5995.52,0.0,1
2024-01-01 08:10:00,8.7,77.3,12994.6,0.0,1
2024-01-01 08:20:00,8.9,77.3,20992,0.0,1
2024-01-01 08:30:00,9.1,77,17991.7,0.0,1
2024-01-01 08:40:00,8.9,77,7997.44,0.0,1
2024-01-01 08:50:00,9.1,75.7,22999,0.0,3
2024-01-01 09:00:00,9.3,73.4,20992,0.0,2
2024-01-01 09:10:00,9.3,73.6,21995.5,0.0,2
2024-01-01 09:20:00,9.6,72.5,22999,0.0,3.5
2024-01-01 09:30:00,9.8,72,22999,0.0,1
2024-01-01 09:40:00,9.8,70.3,22999,0.0,1.5
2024-01-01 09:50:00,10,70.1,21995.5,0.0,7
2024-01-01 10:00:00,10,70.1,22999,0.0,3
2024-01-01 10:10:00,10.1,68.4,23982.1,0.0,3
2024-01-01 10:20:00,10.3,67.7,20992,0.0,1
2024-01-01 10:30:00,10.3,66.1,10997.8,0.0,1
2024-01-01 10:40:00,10,65.4,10997.8,0.0,2
2024-01-01 10:50:00,10.5,64.2,12492.8,0.0,1
2024-01-01 11:00:00,10.5,61.5,11991,0.0,3
2024-01-01 11:10:00,10.5,56.7,12994.6,0.0,3
2024-01-01 11:20:00,10.7,56,13998.1,0.0,4
2024-01-01 11:30:00,10.9,58,13998.1,0.0,3
2024-01-01 11:40:00,10.6,56.2,9999.36,0.0,3
2024-01-01 11:50:00,10.6,54.5,8995.84,0.0,2
2024-01-01 12:00:00,11.1,53.8,27996.2,0.0,1.5
2024-01-01 12:10:00,11.3,53.4,12994.6,0.0,1.5
2024-01-01 12:20:00,10.9,56.8,13998.1,0.0,2
2024-01-01 12:30:00,11.1,57.8,10997.8,0.0,2
2024-01-01 12:40:00,11.1,55,11991,0.0,3.5
2024-01-01 12:50:00,11,56.8,8995.84,0.0,1
2024-01-01 13:00:00,10.9,57.4,7997.44,0.0,4
2024-01-01 13:10:00,10.5,59,10997.8,0.0,1.5
2024-01-01 13:20:00,10.6,59.1,12994.6,0.0,4
2024-01-01 13:30:00,10.8,57.8,13998.1,0.0,1
2024-01-01 13:40:00,10.8,56.4,13998.1,0.0,2
2024-01-01 13:50:00,11,55.9,10997.8,0.0,2.5
2024-01-01 14:00:00,10.9,55.3,9999.36,0.0,1
2024-01-01 14:10:00,11.5,53.6,16998.4,0.0,1
2024-01-01 14:20:00,11.9,51.6,16998.4,0.0,1
2024-01-01 14:30:00,11.4,53.1,11991,0.0,3
2024-01-01 14:40:00,11.4,54.3,9999.36,0.0,2
2024-01-01 14:50:00,11.5,53.1,9999.36,0.0,2
2024-01-01 15:00:00,11.6,52.4,27996.2,0.0,1
2024-01-01 15:10:00,11.7,51.9,13998.1,0.0,2
2024-01-01 15:20:00,11.7,53.2,10997.8,0.0,2
2024-01-01 15:30:00,11.2,53.8,9999.36,0.0,3
2024-01-01 15:40:00,11.4,54.2,8995.84,0.0,2
2024-01-01 15:50:00,11.4,54.4,7997.44,0.0,1
2024-01-01 16:00:00,11.4,53.9,15994.9,0.0,4
2024-01-01 16:10:00,11.2,55.1,11991,0.0,3
2024-01-01 16:20:00,11.2,54.6,8995.84,0.0,1
2024-01-01 16:30:00,11.2,54.8,10997.8,0.0,3
2024-01-01 16:40:00,10.9,54.9,8995.84,0.0,2
2024-01-01 16:50:00,11,55.3,6999.04,0.0,1
2024-01-01 17:00:00,10.8,56.4,3998.72,0.0,1
2024-01-01 17:10:00,10.7,57.9,999.68,0.0,4
2024-01-01 17:20:00,10.6,59.1,999.68,0.0,4
2024-01-01 17:30:00,10.4,59.1,355.84,0.0,2.5
2024-01-01 17:40:00,10.5,61.2,58,0.0,3
2024-01-01 17:50:00,10.3,62.6,8,0.0,1
2024-01-01 18:00:00,10.3,63.1,2,0.0,2.5
2024-01-01 18:10:00,10.2,65.4,2,0.0,4
2024-01-01 18:20:00,10,65.2,2,0.0,4
2024-01-01 18:30:00,9.9,67.5,2,0.0,2
2024-01-01 18:40:00,9.7,66.9,0,0.0,1
2024-01-01 18:50:00,9.8,69.7,0,0.0,2
2024-01-01 19:00:00,9.9,69.8,2,0.0,1
2024-01-01 19:10:00,9.6,71,2,0.0,2
2024-01-01 19:20:00,9.5,70.3,0,0.0,2
2024-01-01 19:30:00,8.8,66.8,0,0.0,0
2024-01-01 19:40:00,8.4,68.9,0,0.0,0
2024-01-01 19:50:00,7.9,71.4,2,0.0,1.5
2024-01-01 20:00:00,7.2,72.7,2,0.0,1
2024-01-01 20:10:00,7.2,73,0,0.0,2
2024-01-01 20:20:00,7.2,72.4,0,0.0,2
2024-01-01 20:30:00,7.2,72.6,0,0.0,0.5
2024-01-01 20:40:00,7,72.4,0,0.0,1
2024-01-01 20:50:00,7,72,0,0.0,0
2024-01-01 21:00:00,6.9,72.1,0,0.0,1
2024-01-01 21:10:00,6.9,73.5,0,0.0,1
2024-01-01 21:20:00,6.7,74.4,0,0.0,1
2024-01-01 21:30:00,6.5,75.7,0,0.0,2
2024-01-01 21:40:00,6.3,76.1,0,0.0,1
2024-01-01 21:50:00,6.2,77,0,0.0,1
2024-01-01 22:00:00,5.8,77.6,0,0.0,1
2024-01-01 22:10:00,5.9,78.8,0,0.0,2
2024-01-01 22:20:00,5.6,79.3,0,0.0,1
2024-01-01 22:30:00,5.7,79.6,0,0.0,1
2024-01-01 22:40:00,5.3,79.9,0,0.0,1
2024-01-01 22:50:00,5.3,80.7,0,0.0,1.5
2024-01-01 23:00:00,5,81.5,0,0.0,1
2024-01-01 23:10:00,5.1,81.9,0,0.0,1
2024-01-01 23:20:00,4.9,82.7,0,0.0,1.5
2024-01-01 23:30:00,4.8,83.1,0,0.0,1
2024-01-01 23:40:00,4.7,83.5,0,0.0,1
2024-01-01 23:50:00,4.6,84.4,0,0.0,2
2024-01-02 00:00:00,4.5,85,0,0.0,2
2024-01-02 00:10:00,4.4,85.7,2,0.0,1
2024-01-02 00:20:00,4.4,86,2,0.0,1
2024-01-02 00:30:00,4.5,86.3,2,0.0,1
2024-01-02 00:40:00,4.1,86.6,0,0.0,1
2024-01-02 00:50:00,4.3,87.4,0,0.0,1
2024-01-02 01:00:00,3.9,88.1,0,0.0,0
2024-01-02 01:10:00,3.7,89,0,0.0,1
2024-01-02 01:20:00,3.8,89.4,0,0.0,1
2024-01-02 01:30:00,3.7,89.8,2,0.0,0
2024-01-02 01:40:00,3.8,90,0,0.0,1
2024-01-02 01:50:00,3.6,90,0,0.0,1
2024-01-02 02:00:00,3.8,89.6,0,0.0,2
2024-01-02 02:10:00,3.7,89.1,0,0.0,3
2024-01-02 02:20:00,3.6,89.8,0,0.0,1
2024-01-02 02:30:00,3.4,90.2,0,0.0,1.5
2024-01-02 02:40:00,3.6,91,0,0.0,1
2024-01-02 02:50:00,3.5,91.3,0,0.0,1
2024-01-02 03:00:00,3.3,91.3,0,0.0,1
2024-01-02 03:10:00,3.3,91.5,0,0.0,1
2024-01-02 03:20:00,2.9,92,0,0.0,1
2024-01-02 03:30:00,2.9,92.4,0,0.0,0
2024-01-02 03:40:00,2.7,92.7,0,0.0,0.5
2024-01-02 03:50:00,2.7,93.5,0,0.0,1
2024-01-02 04:00:00,2.5,93.8,0,0.0,0.5
2024-01-02 04:10:00,2.7,94,0,0.0,1.5
2024-01-02 04:20:00,2.6,93.9,0,0.0,1
2024-01-02 04:30:00,2.7,94,0,0.0,1
2024-01-02 04:40:00,2.6,94,0,0.0,1
2024-01-02 04:50:00,2.5,94.3,0,0.0,2
2024-01-02 05:00:00,2.5,94.5,0,0.0,1
2024-01-02 05:10:00,2.5,94.8,0,0.0,0.5
2024-01-02 05:20:00,2.4,94.9,0,0.0,0.5
2024-01-02 05:30:00,2.4,94.9,0,0.0,1
2024-01-02 05:40:00,2.1,95.2,0,0.0,1
2024-01-02 05:50:00,2.3,95.4,0,0.0,0.5
2024-01-02 06:00:00,2.3,95.5,0,0.0,0
2024-01-02 06:10:00,2.4,95.6,0,0.0,1
2024-01-02 06:20:00,2.5,95.4,2,0.0,1
2024-01-02 06:30:00,2.5,95.1,0,0.0,2
2024-01-02 06:40:00,2.5,95,2,0.0,1
2024-01-02 06:50:00,2.7,95,4,0.0,0
2024-01-02 07:00:00,2.2,95.4,42,0.0,1
2024-01-02 07:10:00,2.5,95.8,253.92,0.0,1.5
2024-01-02 07:20:00,2.3,95.7,999.68,0.0,0
2024-01-02 07:30:00,2.2,95.9,1498.88,0.0,1
2024-01-02 07:40:00,2.3,96.6,7997.44,0.0,1
2024-01-02 07:50:00,2.2,96.6,11991,0.0,1
2024-01-02 08:00:00,2.5,96.6,14991.4,0.0,1
2024-01-02 08:10:00,2.4,96.5,17991.7,0.0,1
2024-01-02 08:20:00,2.7,96.1,18995.2,0.0,1
2024-01-02 08:30:00,3.2,95,20992,0.0,1
2024-01-02 08:40:00,3.5,93.3,21995.5,0.0,1
2024-01-02 08:50:00,3.9,91.7,21995.5,0.0,1
2024-01-02 09:00:00,4.4,89.9,22999,0.0,1
2024-01-02 09:10:00,4.8,88.2,22999,0.0,2
2024-01-02 09:20:00,5.5,87.4,21995.5,0.0,1
2024-01-02 09:30:00,5.9,85.5,21995.5,0.0,2
2024-01-02 09:40:00,6.4,82.4,21995.5,0.0,2
2024-01-02 09:50:00,6.9,80.3,21995.5,0.0,1
2024-01-02 10:00:00,7.9,77.4,21995.5,0.0,1
2024-01-02 10:10:00,8.1,74.9,21995.5,0.0,2
2024-01-02 10:20:00,8.7,73.4,21995.5,0.0,1
2024-01-02 10:30:00,9.4,71.1,21995.5,0.0,1
2024-01-02 10:40:00,9.8,67.6,21995.5,0.0,1
2024-01-02 10:50:00,10.6,63.8,21995.5,0.0,2
2024-01-02 11:00:00,11.1,61.3,21995.5,0.0,1
2024-01-02 11:10:00,11.3,60.4,21995.5,0.0,1.5
2024-01-02 11:20:00,11.5,57.2,21995.5,0.0,1
2024-01-02 11:30:00,12,57,21995.5,0.0,1
2024-01-02 11:40:00,12.4,55.1,22999,0.0,1
2024-01-02 11:50:00,12.6,53.5,22999,0.0,1
2024-01-02 12:00:00,12.5,53.4,22999,0.0,1
2024-01-02 12:10:00,12.4,51.6,22999,0.0,1.5
2024-01-02 12:20:00,12.7,51.2,22999,0.0,2
2024-01-02 12:30:00,13.1,49.8,22999,0.0,3
2024-01-02 12:40:00,12.6,53.5,22999,0.0,4
2024-01-02 12:50:00,12.6,54,22999,0.0,2.5
2024-01-02 13:00:00,12.9,54.2,22999,0.0,2
2024-01-02 13:10:00,12.3,54.9,22999,0.0,2.5
2024-01-02 13:20:00,12.5,56,22999,0.0,1
2024-01-02 13:30:00,12.6,54.4,23982.1,0.0,2
2024-01-02 13:40:00,13.2,53.3,23982.1,0.0,1
2024-01-02 13:50:00,13.4,50.9,23982.1,0.0,1.5
2024-01-02 14:00:00,13.7,49.3,23982.1,0.0,1.5
2024-01-02 14:10:00,14.1,48.3,23982.1,0.0,2
2024-01-02 14:20:00,13.7,48.6,22999,0.0,2.5
2024-01-02 14:30:00,13.7,49.3,22999,0.0,2
2024-01-02 14:40:00,13.7,49.2,22999,0.0,1
2024-01-02 14:50:00,13.6,49.6,21995.5,0.0,1
2024-01-02 15:00:00,13.6,49.4,20992,0.0,3
2024-01-02 15:10:00,13.5,49.8,13496.3,0.0,2
2024-01-02 15:20:00,13.3,50.5,7997.44,0.0,2
2024-01-02 15:30:00,13.2,51.1,18995.2,0.0,3
2024-01-02 15:40:00,13.4,51,17991.7,0.0,1
2024-01-02 15:50:00,13,51.2,16496.6,0.0,2.5
2024-01-02 16:00:00,12.9,52,15994.9,0.0,2
2024-01-02 16:10:00,12.4,54.7,13998.1,0.0,2
2024-01-02 16:20:00,12.4,57.5,12994.6,0.0,2
2024-01-02 16:30:00,12.2,59.7,10997.8,0.0,2
2024-01-02 16:40:00,12.1,61.8,9999.36,0.0,2
2024-01-02 16:50:00,11.8,63.3,7495.68,0.0,2
2024-01-02 17:00:00,11.7,64.3,4999.68,0.0,1
2024-01-02 17:10:00,11.4,65.1,1999.36,0.0,2
2024-01-02 17:20:00,11.2,65.8,999.68,0.0,1
2024-01-02 17:30:00,11.2,66.8,499.84,0.0,1
2024-01-02 17:40:00,11,67.6,50,0.0,1
2024-01-02 17:50:00,10.9,69.1,6,0.0,1
2024-01-02 18:00:00,10.8,70.1,2,0.0,0
2024-01-02 18:10:00,10.4,70.8,2,0.0,1
2024-01-02 18:20:00,10.3,71.5,2,0.0,0
2024-01-02 18:30:00,9.9,72.7,2,0.0,1
2024-01-02 18:40:00,9.5,73.9,2,0.0,1
2024-01-02 18:50:00,9.4,74.6,2,0.0,1
2024-01-02 19:00:00,9.2,75,2,0.0,0.5
2024-01-02 19:10:00,9.1,76,0,0.0,1
2024-01-02 19:20:00,9,77.4,0,0.0,1
2024-01-02 19:30:00,8.7,79.6,2,0.0,2
2024-01-02 19:40:00,8.6,80.6,2,0.0,1
2024-01-02 19:50:00,8.1,81.3,2,0.0,1
2024-01-02 20:00:00,7.9,82.4,2,0.0,1
2024-01-02 20:10:00,8.1,83,0,0.0,1
2024-01-02 20:20:00,7.8,83.3,0,0.0,2
2024-01-02 20:30:00,7.8,83.9,2,0.0,1.5
2024-01-02 20:40:00,7.4,84.2,0,0.0,2
2024-01-02 20:50:00,7.4,84.7,0,0.0,1
2024-01-02 21:00:00,7.4,84.9,0,0.0,1
2024-01-02 21:10:00,7.3,85.3,0,0.0,1
2024-01-02 21:20:00,7.1,85.5,0,0.0,1
2024-01-02 21:30:00,7,85.9,0,0.0,1
2024-01-02 21:40:00,6.8,86.8,0,0.0,1
2024-01-02 21:50:00,6.7,87.4,0,0.0,0
2024-01-02 22:00:00,6.5,88.3,0,0.0,1.5
2024-01-02 22:10:00,6.4,88.7,0,0.0,2
2024-01-02 22:20:00,6.3,89.5,0,0.0,1
2024-01-02 22:30:00,6.3,90.2,0,0.0,1
2024-01-02 22:40:00,6.2,90.2,0,0.0,1
2024-01-02 22:50:00,6.1,90.3,0,0.0,0
2024-01-02 23:00:00,5.9,90.5,0,0.0,1
2024-01-02 23:10:00,5.6,91.2,0,0.0,2
2024-01-02 23:20:00,5.7,91.9,0,0.0,1.5
2024-01-02 23:30:00,5.5,91.8,0,0.0,1
2024-01-02 23:40:00,5.5,91.5,0,0.0,1
2024-01-02 23:50:00,5.3,91.7,0,0.0,0
2024-01-03 00:00:00,5.4,92.5,0,0.0,0
2024-01-03 00:10:00,5.3,92.6,0,0.0,1
2024-01-03 00:20:00,5.3,92.6,0,0.0,1
2024-01-03 00:30:00,5.5,92.9,2,0.0,1
2024-01-03 00:40:00,5.2,93.3,0,0.0,1
2024-01-03 00:50:00,4.9,93.9,0,0.0,1
2024-01-03 01:00:00,5.3,94.1,0,0.0,1
2024-01-03 01:10:00,5.3,93.6,2,0.0,0.5
2024-01-03 01:20:00,5.3,93,2,0.0,1
2024-01-03 01:30:00,5.4,92.5,2,0.0,1
2024-01-03 01:40:00,5.4,92.6,0,0.0,1
2024-01-03 01:50:00,5.5,92.7,0,0.0,1
2024-01-03 02:00:00,5.2,92.6,2,0.0,1
2024-01-03 02:10:00,5.6,92.4,0,0.0,0
2024-01-03 02:20:00,5.3,92.5,2,0.0,1
2024-01-03 02:30:00,5.3,92.8,0,0.0,1
2024-01-03 02:40:00,5.1,93.3,2,0.0,1
2024-01-03 02:50:00,5.5,93.1,2,0.0,1
2024-01-03 03:00:00,5.3,92.7,0,0.0,1
2024-01-03 03:10:00,5.5,92.3,0,0.0,1
2024-01-03 03:20:00,5.7,92.1,0,0.0,1
2024-01-03 03:30:00,5.5,92.3,0,0.0,1
2024-01-03 03:40:00,5.6,91.8,2,0.0,2
2024-01-03 03:50:00,5.7,91.3,0,0.0,0
2024-01-03 04:00:00,5.6,91.5,0,0.0,1
2024-01-03 04:10:00,5.5,91.7,0,0.0,0.5
2024-01-03 04:20:00,5.5,92.3,2,0.0,1.5
2024-01-03 04:30:00,5.6,92.7,2,0.0,1
2024-01-03 04:40:00,5.4,92.3,2,0.0,0
2024-01-03 04:50:00,5.7,92,2,0.0,1
2024-01-03 05:00:00,5.5,91.6,2,0.0,1
2024-01-03 05:10:00,5.6,91.5,0,0.0,1
2024-01-03 05:20:00,5.8,91.8,2,0.0,1
2024-01-03 05:30:00,5.8,91.7,2,0.0,1
2024-01-03 05:40:00,5.8,91.6,0,0.0,1
2024-01-03 05:50:00,6.1,91.5,0,0.0,1
2024-01-03 06:00:00,6.1,90.9,0,0.0,1
2024-01-03 06:10:00,6.3,90.9,0,0.0,1
2024-01-03 06:20:00,6.2,91.2,2,0.0,0.5
2024-01-03 06:30:00,6.1,91.2,2,0.0,1
2024-01-03 06:40:00,6,90.9,2,0.0,2
2024-01-03 06:50:00,6.3,90.1,2,0.0,1
2024-01-03 07:00:00,6.2,90.2,8,0.0,1
2024-01-03 07:10:00,5.9,90.9,74,0.0,0
2024-01-03 07:20:00,5.7,91.2,269.92,0.0,0
2024-01-03 07:30:00,6.1,91.4,999.68,0.0,1
2024-01-03 07:40:00,6,91.2,999.68,0.0,1
2024-01-03 07:50:00,6.4,91.4,1999.36,0.0,1
2024-01-03 08:00:00,6.5,91.4,2997.76,0.0,1
2024-01-03 08:10:00,6.2,90.9,2997.76,0.0,0
2024-01-03 08:20:00,6.5,90.1,4999.68,0.0,1
2024-01-03 08:30:00,6.6,89.7,5995.52,0.0,2
2024-01-03 08:40:00,6.6,89.2,3998.72,0.0,1
2024-01-03 08:50:00,6.8,88.7,7997.44,0.0,1
2024-01-03 09:00:00,7.2,87.9,7997.44,0.0,1
2024-01-03 09:10:00,7.5,87,9999.36,0.0,1
2024-01-03 09:20:00,7.7,85.7,4999.68,0.0,0.5
2024-01-03 09:30:00,8,84.4,4999.68,0.0,1
2024-01-03 09:40:00,8.2,85.6,5995.52,0.0,1
2024-01-03 09:50:00,8,85.4,5995.52,0.0,0
2024-01-03 10:00:00,8.3,85.9,6999.04,0.0,0.5
2024-01-03 10:10:00,8.5,83.7,8995.84,0.0,0.5
2024-01-03 10:20:00,8.4,83.1,13998.1,0.0,0
2024-01-03 10:30:00,8.8,81.6,11991,0.0,1
2024-01-03 10:40:00,9.1,80.9,8995.84,0.0,1
2024-01-03 10:50:00,8.8,81.8,5995.52,0.0,1.5
2024-01-03 11:00:00,8.8,82.3,9999.36,0.0,1
2024-01-03 11:10:00,8.9,83.6,8995.84,0.0,1
2024-01-03 11:20:00,9.3,83.2,9999.36,0.0,1
2024-01-03 11:30:00,9.4,83.6,11991,0.0,1
2024-01-03 11:40:00,9.4,83.4,16998.4,0.0,1
2024-01-03 11:50:00,9.6,82.9,16998.4,0.0,1
2024-01-03 12:00:00,10,83.5,11991,0.0,1
2024-01-03 12:10:00,10,83,10997.8,1.0,0
2024-01-03 12:20:00,9.9,83.8,7997.44,0.0,1
2024-01-03 12:30:00,9.7,85.8,9999.36,0.0,1
2024-01-03 12:40:00,10.2,87,10997.8,0.0,1
2024-01-03 12:50:00,10.5,84.7,8995.84,0.0,2
2024-01-03 13:00:00,10.4,86.3,7997.44,0.0,3
2024-01-03 13:10:00,10.6,86.4,9999.36,0.0,1
2024-01-03 13:20:00,10.8,84.2,11991,0.0,2.5
2024-01-03 13:30:00,10.7,82.7,13998.1,0.0,2
2024-01-03 13:40:00,11,84.3,11991,0.0,1
2024-01-03 13:50:00,10.7,84.2,7997.44,0.0,1
2024-01-03 14:00:00,10.4,86.2,2997.76,0.0,2
2024-01-03 14:10:00,10.3,88.9,2997.76,1.0,1
2024-01-03 14:20:00,10.2,90.9,2997.76,1.0,1
2024-01-03 14:30:00,10.1,92.4,3998.72,1.0,1
2024-01-03 14:40:00,10,93.6,4999.68,1.0,3
2024-01-03 14:50:00,9.9,93.9,4999.68,1.0,2
2024-01-03 15:00:00,9.7,93.4,3998.72,1.0,2
2024-01-03 15:10:00,9.8,93,5498.88,1.0,2
2024-01-03 15:20:00,9.7,92.4,5995.52,1.0,2.5
2024-01-03 15:30:00,9.9,91.1,5995.52,1.0,3
2024-01-03 15:40:00,10.2,91,4999.68,1.0,0.5
2024-01-03 15:50:00,10,91.5,3998.72,1.0,0
2024-01-03 16:00:00,10.2,92.5,4999.68,1.0,1
2024-01-03 16:10:00,9.9,93.9,2997.76,1.0,0
2024-01-03 16:20:00,10.1,95.8,1999.36,1.0,1
2024-01-03 16:30:00,9.8,96.4,1999.36,1.0,1
2024-01-03 16:40:00,9.4,95.7,2997.76,1.0,1
2024-01-03 16:50:00,9.4,95.1,1999.36,1.0,1
2024-01-03 17:00:00,9.3,94.8,1999.36,1.0,0
2024-01-03 17:10:00,8.9,94.7,999.68,1.0,1
2024-01-03 17:20:00,8.9,94.9,483.84,1.0,1
2024-01-03 17:30:00,8.7,95.5,181.92,1.0,0
2024-01-03 17:40:00,8.9,94.6,42,1.0,1
2024-01-03 17:50:00,8.8,92.6,6,1.0,1
2024-01-03 18:00:00,9,90.4,2,1.0,1
2024-01-03 18:10:00,9.2,86.2,2,1.0,1.5
2024-01-03 18:20:00,9.1,85,0,1.0,2
2024-01-03 18:30:00,9.1,86.1,2,1.0,1
2024-01-03 18:40:00,9.2,86.9,2,0.0,2
2024-01-03 18:50:00,8.9,87.7,2,0.0,2
2024-01-03 19:00:00,8.7,88.3,2,0.0,1
2024-01-03 19:10:00,8.8,87.8,2,0.0,2
2024-01-03 19:20:00,8.4,88.1,2,0.0,1
2024-01-03 19:30:00,8.3,88.5,2,0.0,1
2024-01-03 19:40:00,8.6,89.8,2,0.0,2
2024-01-03 19:50:00,8.7,89.2,2,0.0,3
2024-01-03 20:00:00,8.8,89.2,2,0.0,1
2024-01-03 20:10:00,8.6,87.8,2,0.0,1.5
2024-01-03 20:20:00,8.7,85.1,2,0.0,2
2024-01-03 20:30:00,8.7,81.9,2,0.0,2
2024-01-03 20:40:00,8.9,79.2,2,0.0,4.5
2024-01-03 20:50:00,8.6,78.2,2,0.0,6.5
2024-01-03 21:00:00,8.7,76,2,0.0,2.5
2024-01-03 21:10:00,8.4,76,2,0.0,3
2024-01-03 21:20:00,8.7,77.4,2,0.0,2
2024-01-03 21:30:00,8.7,76.5,0,0.0,4
2024-01-03 21:40:00,8.5,76.3,2,0.0,3.5
2024-01-03 21:50:00,8.4,74.9,2,0.0,4
2024-01-03 22:00:00,8.4,70.9,2,0.0,3
2024-01-03 22:10:00,8.4,74.3,2,0.0,3
2024-01-03 22:20:00,8.5,72.5,0,0.0,2
2024-01-03 22:30:00,8.2,73,0,0.0,3
2024-01-03 22:40:00,7.9,74.7,0,0.0,2.5
2024-01-03 22:50:00,7.5,77.8,0,0.0,2
2024-01-03 23:00:00,7.1,80.1,0,0.0,1
2024-01-03 23:10:00,6.8,82.1,0,0.0,1
2024-01-03 23:20:00,6.7,83.2,0,0.0,1
2024-01-03 23:30:00,6.3,84.5,0,0.0,1
2024-01-03 23:40:00,6.3,85.3,0,0.0,1
2024-01-03 23:50:00,6.2,84.3,0,0.0,0
2024-01-04 00:00:00,6,85.8,0,0.0,1
2024-01-04 00:10:00,5.6,87.2,0,0.0,0
2024-01-04 00:20:00,5.8,85.6,0,0.0,1
2024-01-04 00:30:00,6.8,76.1,0,0.0,3
2024-01-04 00:40:00,7.7,70.2,0,0.0,7
2024-01-04 00:50:00,7.3,78.3,2,0.0,2
2024-01-04 01:00:00,7.1,80.6,2,0.0,2.5
2024-01-04 01:10:00,6.7,83.3,2,0.0,3.5
2024-01-04 01:20:00,6.8,84.9,0,0.0,2
2024-01-04 01:30:00,6.6,86.3,0,0.0,2
2024-01-04 01:40:00,6.5,85.9,2,0.0,3
2024-01-04 01:50:00,6.8,84.7,0,0.0,1
2024-01-04 02:00:00,6.6,83.1,0,0.0,2
2024-01-04 02:10:00,6.6,83.5,0,0.0,1
2024-01-04 02:20:00,6.9,84.7,0,0.0,1
2024-01-04 02:30:00,6.8,86.1,2,0.0,0.5
2024-01-04 02:40:00,6.3,84.3,2,0.0,1
2024-01-04 02:50:00,6.7,78.3,0,0.0,1
2024-01-04 03:00:00,6.8,76.2,0,0.0,2
2024-01-04 03:10:00,6.8,75.1,0,0.0,4.5
2024-01-04 03:20:00,6.9,77,0,0.0,1
2024-01-04 03:30:00,6.1,78.4,0,0.0,1
2024-01-04 03:40:00,5.9,80.7,0,0.0,1
2024-01-04 03:50:00,5.5,82.8,0,0.0,1
2024-01-04 04:00:00,5.5,82.6,0,0.0,1
2024-01-04 04:10:00,6.2,77.8,0,0.0,1
2024-01-04 04:20:00,6.6,72.8,0,0.0,1
2024-01-04 04:30:00,6.7,73.5,0,0.0,2
2024-01-04 04:40:00,6.8,74.3,0,0.0,2
2024-01-04 04:50:00,6.6,71.8,0,0.0,1
2024-01-04 05:00:00,6.2,78.3,2,0.0,1
2024-01-04 05:10:00,5.5,81.7,0,0.0,1
2024-01-04 05:20:00,5.3,82.1,0,0.0,1
2024-01-04 05:30:00,5.4,79.3,0,0.0,2
2024-01-04 05:40:00,5.2,81.9,0,0.0,1.5
2024-01-04 05:50:00,4.9,82.9,0,0.0,0
2024-01-04 06:00:00,4.8,81.5,0,0.0,2
2024-01-04 06:10:00,5.2,78.1,0,0.0,0
2024-01-04 06:20:00,5.4,76.1,2,0.0,1
2024-01-04 06:30:00,5.8,74,2,0.0,1
2024-01-04 06:40:00,5.8,71.6,2,0.0,2
2024-01-04 06:50:00,6.1,70.4,2,0.0,0
2024-01-04 07:00:00,5.9,69.3,24,0.0,1
2024-01-04 07:10:00,6.4,67.2,168,0.0,1
2024-01-04 07:20:00,7.1,63.1,999.68,0.0,2.5
2024-01-04 07:30:00,7.1,62.9,999.68,0.0,1
2024-01-04 07:40:00,7,65.8,2997.76,0.0,1
2024-01-04 07:50:00,7.3,65,3998.72,0.0,2.5
2024-01-04 08:00:00,7.3,65.7,8995.84,0.0,1.5
2024-01-04 08:10:00,7.3,67.9,6999.04,0.0,2
2024-01-04 08:20:00,7.2,67.6,17991.7,0.0,1.5
2024-01-04 08:30:00,7.2,67.1,19998.7,0.0,2
2024-01-04 08:40:00,7.3,66.6,20992,0.0,2
2024-01-04 08:50:00,7.5,66.9,22999,0.0,5.5
2024-01-04 09:00:00,7.7,66.9,22999,0.0,4
2024-01-04 09:10:00,7.7,66.6,21995.5,0.0,3
2024-01-04 09:20:00,7.9,66.7,21995.5,0.0,2
2024-01-04 09:30:00,7.7,63.8,21995.5,0.0,4
2024-01-04 09:40:00,8.1,61.6,21995.5,0.0,2
2024-01-04 09:50:00,8.1,59.5,21995.5,0.0,2.5
2024-01-04 10:00:00,8.3,59.4,21995.5,0.0,2.5
2024-01-04 10:10:00,8.5,57,21995.5,0.0,6.5
2024-01-04 10:20:00,8.9,54.6,21995.5,0.0,5.5
2024-01-04 10:30:00,8.8,51.9,21995.5,0.0,5.5
2024-01-04 10:40:00,8.8,53,21995.5,0.0,4
2024-01-04 10:50:00,9.2,51.8,21995.5,0.0,3
2024-01-04 11:00:00,9.3,50.3,21995.5,0.0,3.5
2024-01-04 11:10:00,9.6,51.7,21995.5,0.0,5
2024-01-04 11:20:00,9.2,50.9,21995.5,0.0,2.5
2024-01-04 11:30:00,9.6,51.5,22999,0.0,2
2024-01-04 11:40:00,9.5,52.4,22999,0.0,3.5
2024-01-04 11:50:00,9.7,53,22999,0.0,4
2024-01-04 12:00:00,9.8,53.2,22999,0.0,3
2024-01-04 12:10:00,9.8,50.2,22999,0.0,6.5
2024-01-04 12:20:00,9.6,50.8,22999,0.0,2
2024-01-04 12:30:00,10,50.1,22999,0.0,4
2024-01-04 12:40:00,10.2,49.1,23982.1,0.0,2
2024-01-04 12:50:00,10.4,47.7,23982.1,0.0,2.5
2024-01-04 13:00:00,10.4,47.9,23982.1,0.0,4
2024-01-04 13:10:00,10.6,47.6,23982.1,0.0,4
2024-01-04 13:20:00,10.5,49.5,23982.1,0.0,2
2024-01-04 13:30:00,10.8,49.2,23982.1,0.0,2
2024-01-04 13:40:00,11.2,47.6,23982.1,0.0,2.5
2024-01-04 13:50:00,11,46.6,24985.6,0.0,1
2024-01-04 14:00:00,11.1,49.8,23982.1,0.0,4
2024-01-04 14:10:00,11.3,46.6,23982.1,0.0,1.5
2024-01-04 14:20:00,11.3,45.6,23982.1,0.0,3
2024-01-04 14:30:00,11.5,44.4,23982.1,0.0,2
2024-01-04 14:40:00,11.3,42,22999,0.0,3
2024-01-04 14:50:00,11.4,43.2,22999,0.0,1
2024-01-04 15:00:00,11.8,44.3,21995.5,0.0,3
2024-01-04 15:10:00,11.6,44.4,21995.5,0.0,2
2024-01-04 15:20:00,11.8,45.2,20992,0.0,2
2024-01-04 15:30:00,11.9,46.9,19998.7,0.0,1.5
2024-01-04 15:40:00,11.8,47,18995.2,0.0,1
2024-01-04 15:50:00,11.6,47.8,16998.4,0.0,2
2024-01-04 16:00:00,11.5,46.1,15994.9,0.0,1
2024-01-04 16:10:00,11.4,44.4,14991.4,0.0,2
2024-01-04 16:20:00,11.4,47.1,12994.6,0.0,3
2024-01-04 16:30:00,11,49,10997.8,0.0,3
2024-01-04 16:40:00,11.3,49.8,9999.36,0.0,3
2024-01-04 16:50:00,10.8,50.2,6999.04,0.0,1
2024-01-04 17:00:00,11,49.5,4999.68,0.0,1
2024-01-04 17:10:00,10.7,52.8,999.68,0.0,3
2024-01-04 17:20:00,10.5,55.7,999.68,0.0,1
2024-01-04 17:30:00,10.1,58.6,499.84,0.0,1
2024-01-04 17:40:00,9.8,60.1,50,0.0,1
2024-01-04 17:50:00,9.5,61.6,6,0.0,2
2024-01-04 18:00:00,9.7,62.5,2,0.0,0.5
2024-01-04 18:10:00,9.5,62.9,2,0.0,1
2024-01-04 18:20:00,9,63.7,2,0.0,1
2024-01-04 18:30:00,9.1,63.8,2,0.0,1
2024-01-04 18:40:00,8.9,65,2,0.0,1
2024-01-04 18:50:00,8.5,66.3,0,0.0,2
2024-01-04 19:00:00,8.6,68.2,2,0.0,1
2024-01-04 19:10:00,8.3,69.5,2,0.0,0
2024-01-04 19:20:00,8.1,70.4,2,0.0,0
2024-01-04 19:30:00,7.9,72.5,2,0.0,0
2024-01-04 19:40:00,7.3,74.3,2,0.0,1
2024-01-04 19:50:00,7,75.3,2,0.0,1
2024-01-04 20:00:00,6.7,76.7,0,,0
2024-01-04 20:10:00,6.3,77.3,0,,0
2024-01-04 20:20:00,6.3,77.7,0,,0
2024-01-04 20:30:00,6.1,78,0,,0
2024-01-04 20:40:00,5.8,79,0,,0
2024-01-04 20:50:00,5.4,80.8,0,,0
2024-01-04 21:00:00,5.3,82.4,0,,0
2024-01-04 21:10:00,5.2,83.2,0,,0
2024-01-04 21:20:00,5,83.8,0,,0
2024-01-04 21:30:00,4.9,84.1,0,,0
2024-01-04 21:40:00,4.8,84.3,0,,0
2024-01-04 21:50:00,4.8,84.6,0,,0
2024-01-04 22:00:00,4.6,84.7,0,,0
2024-01-04 22:10:00,4.3,84.8,0,,0
2024-01-04 22:20:00,4.3,85.5,0,,0
2024-01-04 22:30:00,4.1,86.1,0,,0
2024-01-04 22:40:00,4.1,85.9,0,,0
2024-01-04 22:50:00,4,85.7,0,,0
2024-01-04 23:00:00,3.9,85.8,0,,0
2024-01-04 23:10:00,3.7,86.9,0,,0
2024-01-04 23:20:00,3.5,87.8,0,,0
2024-01-04 23:30:00,3.5,88.6,0,,0
2024-01-04 23:40:00,3.3,88.9,0,,0
2024-01-04 23:50:00,3.2,89.4,0,,0
2024-01-05 00:00:00,3.1,89.5,0,,0
2024-01-05 00:10:00,3,89.9,0,,0
2024-01-05 00:20:00,2.9,89.9,0,,0
2024-01-05 00:30:00,3,90.3,0,,0
2024-01-05 00:40:00,2.7,90.3,0,,0
2024-01-05 00:50:00,2.5,90.2,0,,0
2024-01-05 01:00:00,2.6,90.1,0,,0
2024-01-05 01:10:00,2.6,90.4,0,,0
2024-01-05 01:20:00,2.4,91.6,0,,0
2024-01-05 01:30:00,2.3,92.4,0,,0
2024-01-05 01:40:00,2.3,92.3,0,,0
2024-01-05 01:50:00,2,93,0,,0
2024-01-05 02:00:00,2.2,93.5,0,,0
2024-01-05 02:10:00,2,93.5,0,,0
2024-01-05 02:20:00,2,93.1,0,,0
2024-01-05 02:30:00,1.6,93.2,0,,0
2024-01-05 02:40:00,1.7,94,0,,0